OE3AOG Weather Reports


time (UTC)temp
F
wind
direction
speed
knots
gust
knots
rain 1hr
in
rain 24hr
in
rain mn
in
humidity
%
barometer
mb
20260505235523 55 44 0.9 2.6 0.00 0.00 0.00 69 1005.7
20260505234531 55 55 0.9 2.6 0.00 0.00 0.00 69 1005.6
20260505233522 55 98 0.0 1.7 0.00 0.00 0.00 70 1005.5
20260505232531 55 142 0.9 1.7 0.00 0.00 0.00 70 1005.4
20260505231523 55 120 0.9 1.7 0.00 0.00 0.00 69 1005.2
20260505230531 56 111 0.9 2.6 0.00 0.00 0.00 68 1005.2
20260505225522 56 133 0.9 2.6 0.00 0.00 0.00 67 1005.2
20260505224530 56 130 0.9 2.6 0.00 0.00 0.00 66 1005.1
20260505223523 57 124 0.9 1.7 0.00 0.00 0.00 64 1005.0
20260505222523 58 104 0.0 1.7 0.00 0.00 0.00 63 1004.8
20260505221531 57 140 0.9 2.6 0.00 0.00 0.00 63 1004.8
20260505220523 57 135 0.9 2.6 0.00 0.00 0.00 63 1004.8
20260505215531 57 141 0.9 1.7 0.00 0.00 0.00 63 1004.6
20260505214523 58 39 0.9 2.6 0.00 0.00 0.00 62 1004.6
20260505213531 58 110 1.7 2.6 0.00 0.00 0.00 61 1004.5
20260505212531 61 23 0.9 3.5 0.00 0.00 0.00 57 1004.4
20260505211523 63 136 0.0 3.5 0.00 0.00 0.00 52 1004.3
20260505210531 63 154 1.7 4.3 0.00 0.00 0.00 51 1004.1
20260505205523 64 164 2.6 5.2 0.00 0.00 0.00 51 1004.0
20260505204531 64 167 4.3 7.8 0.00 0.00 0.00 50 1003.8
20260505203522 64 173 4.3 8.7 0.00 0.00 0.00 50 1003.7
20260505202531 64 168 4.3 8.7 0.00 0.00 0.00 50 1003.7
20260505201524 64 175 4.3 8.7 0.00 0.00 0.00 50 1003.6
20260505200531 65 176 4.3 8.7 0.00 0.00 0.00 50 1003.6
20260505195523 65 178 4.3 9.6 0.00 0.00 0.00 49 1003.6
20260505194515 65 175 5.2 11.3 0.00 0.00 0.00 49 1003.7
20260505193524 65 176 5.2 10.4 0.00 0.00 0.00 49 1003.5
20260505192531 65 170 4.3 11.3 0.00 0.00 0.00 49 1003.4
20260505191523 66 177 5.2 13.9 0.00 0.00 0.00 48 1003.4
20260505190532 66 175 5.2 11.3 0.00 0.00 0.00 48 1003.3
20260505185523 66 177 5.2 11.3 0.00 0.00 0.00 47 1003.4
20260505184524 67 181 7.0 13.9 0.00 0.00 0.00 46 1003.4
20260505183531 67 169 5.2 11.3 0.00 0.00 0.00 46 1003.3
20260505182524 67 170 6.1 16.5 0.00 0.00 0.00 46 1003.2
20260505181532 68 160 7.0 15.6 0.00 0.00 0.00 45 1003.2
20260505180523 68 167 6.1 12.2 0.00 0.00 0.00 45 1003.4
20260505175530 68 166 7.0 13.0 0.00 0.00 0.00 44 1003.3
20260505174524 69 172 6.1 13.0 0.00 0.00 0.00 43 1003.3
20260505173523 69 163 7.0 14.8 0.00 0.00 0.00 43 1003.3
20260505172531 69 167 6.1 16.5 0.00 0.00 0.00 42 1003.5
20260505171523 70 156 6.1 12.2 0.00 0.00 0.00 41 1003.5
20260505170531 71 156 5.2 14.8 0.00 0.00 0.00 41 1003.5
20260505165532 71 175 7.0 16.5 0.00 0.00 0.00 40 1003.5
20260505164523 72 163 7.0 17.4 0.00 0.00 0.00 39 1003.6
20260505163531 73 176 7.8 18.2 0.00 0.00 0.00 38 1003.8
20260505162523 73 157 6.1 16.5 0.00 0.00 0.00 38 1003.9
20260505161531 74 164 8.7 17.4 0.00 0.00 0.00 38 1004.1
20260505160524 74 174 6.1 14.8 0.00 0.00 0.00 38 1004.1
20260505152531 75 177 7.0 16.5 0.00 0.00 0.00 37 1004.5
20260505151523 75 167 8.7 18.2 0.00 0.00 0.00 37 1004.6
20260505150531 75 162 7.0 18.2 0.00 0.00 0.00 36 1004.6
20260505140515 79 163 7.8 19.1 0.00 0.00 0.00 29 1004.3
20260505124524 80 173 7.0 17.4 0.00 0.00 0.00 26 1004.8
20260505123516 81 166 7.0 16.5 0.00 0.00 0.00 25 1004.9
20260505122524 80 147 7.8 19.1 0.00 0.00 0.00 25 1005.0
20260505121531 81 163 7.8 20.0 0.00 0.00 0.00 24 1005.1
20260505120524 81 176 7.8 16.5 0.00 0.00 0.00 24 1005.2
20260505115516 81 178 7.8 16.5 0.00 0.00 0.00 24 1005.4
20260505114523 80 174 7.8 18.2 0.00 0.00 0.00 25 1005.4
20260505113516 81 172 7.0 16.5 0.00 0.00 0.00 25 1005.6
20260505112524 81 147 5.2 13.9 0.00 0.00 0.00 26 1005.5
20260505111516 80 148 6.1 13.0 0.00 0.00 0.00 26 1005.7
20260505110524 80 160 5.2 11.3 0.00 0.00 0.00 26 1005.8
20260505101524 76 327 1.7 4.3 0.00 0.00 0.00 39 1006.4
20260505100516 74 99 1.7 5.2 0.00 0.00 0.00 41 1006.7
20260505095524 74 31 1.7 6.1 0.00 0.00 0.00 42 1006.9
20260505094515 73 74 1.7 4.3 0.00 0.00 0.00 44 1007.1
20260505093524 71 19 1.7 5.2 0.00 0.00 0.00 45 1007.3
20260505092516 70 39 1.7 5.2 0.00 0.00 0.00 46 1007.4
20260505091524 69 30 2.6 5.2 0.00 0.00 0.00 46 1007.6
20260505090517 68 50 2.6 5.2 0.00 0.00 0.00 47 1007.7
20260505085523 68 59 1.7 5.2 0.00 0.00 0.00 48 1007.7
20260505084515 67 48 2.6 5.2 0.00 0.00 0.00 48 1007.8
20260505083525 67 19 1.7 5.2 0.00 0.00 0.00 48 1007.9
20260505082516 68 86 2.6 6.1 0.00 0.00 0.00 46 1007.9
20260505081524 68 72 2.6 5.2 0.00 0.00 0.00 47 1008.0
20260505080516 67 74 1.7 5.2 0.00 0.00 0.00 48 1008.0
20260505075524 66 104 2.6 3.5 0.00 0.00 0.00 48 1008.0
20260505074524 66 54 1.7 3.5 0.00 0.00 0.00 49 1008.1
20260505073516 64 111 1.7 4.3 0.00 0.00 0.00 50 1008.2
20260505072524 64 136 3.5 5.2 0.00 0.00 0.00 50 1008.2
20260505071516 63 124 3.5 4.3 0.00 0.00 0.00 50 1008.2
20260505070524 64 125 1.7 4.3 0.00 0.00 0.00 49 1008.2
20260505065516 60 125 0.9 1.7 0.00 0.00 0.00 56 1008.3
20260505064524 57 153 0.0 1.7 0.00 0.00 0.00 62 1008.2
20260505063516 57 128 0.9 1.7 0.00 0.00 0.00 63 1008.3
20260505062524 57 130 0.9 1.7 0.00 0.00 0.00 63 1008.1
20260505061525 57 111 0.9 1.7 0.00 0.00 0.00 63 1008.1
20260505060525 57 114 0.0 1.7 0.00 0.00 0.00 62 1008.0
20260505055516 56 135 0.9 1.7 0.00 0.00 0.00 61 1008.1
20260505054524 56 131 1.7 2.6 0.00 0.00 0.00 62 1008.1
20260505053516 56 141 1.7 3.5 0.00 0.00 0.00 62 1008.0
20260505052524 56 119 1.7 3.5 0.00 0.00 0.00 63 1008.0
20260505051525 56 82 1.7 2.6 0.00 0.00 0.00 61 1007.9
20260505050517 57 83 0.9 2.6 0.00 0.00 0.00 60 1007.9
20260505041525 51 116 1.7 3.5 0.00 0.00 0.00 71 1007.8
20260505040516 51 91 1.7 3.5 0.00 0.00 0.00 70 1007.9
20260505035524 51 22 1.7 2.6 0.00 0.00 0.00 70 1007.9
20260505034525 51 8 0.9 3.5 0.00 0.00 0.00 70 1007.9
20260505033517 50 56 0.9 2.6 0.00 0.00 0.00 73 1007.9
20260505032524 50 142 0.9 1.7 0.00 0.00 0.00 72 1008.1
20260505031517 50 112 2.6 3.5 0.00 0.00 0.00 72 1008.2
20260505030524 51 87 0.0 2.6 0.00 0.00 0.00 70 1008.1
20260505025517 52 114 0.9 1.7 0.00 0.00 0.00 69 1008.1
20260505024525 52 168 1.7 2.6 0.00 0.00 0.00 68 1008.2
20260505023516 52 144 0.9 2.6 0.00 0.00 0.00 69 1008.1
20260505022525 51 143 1.7 3.5 0.00 0.00 0.00 70 1008.2
20260505021517 51 105 1.7 3.5 0.00 0.00 0.00 70 1008.3
20260505020525 51 133 0.9 2.6 0.00 0.00 0.00 70 1008.2
20260505015516 51 129 0.9 1.7 0.00 0.00 0.00 69 1008.4
20260505014517 52 130 0.9 2.6 0.00 0.00 0.00 68 1008.5
20260505013517 53 103 0.9 1.7 0.00 0.00 0.00 67 1008.5
20260505012525 53 127 0.9 3.5 0.00 0.00 0.00 67 1008.4
20260505011517 52 133 0.9 1.7 0.00 0.00 0.00 67 1008.5
20260505010525 53 104 0.0 1.7 0.00 0.00 0.00 67 1008.6
20260505005517 53 112 0.9 1.7 0.00 0.00 0.00 67 1008.6
20260505004525 53 117 0.0 0.9 0.00 0.00 0.00 66 1008.7
20260505003517 54 97 0.0 1.7 0.00 0.00 0.00 64 1008.8
20260505002525 54 122 0.9 1.7 0.00 0.00 0.00 63 1008.8
20260505001525 55 74 0.0 1.7 0.00 0.00 0.00 60 1008.9
20260505000518 57 95 0.9 1.7 0.00 0.00 0.00 58 1009.0